AAY330 KMRY-KSAN

Flight info

Callsign AAY330
Flight time 1h 5m
Altitude 39000
Route SERFR CALIS LAX COMIX2
Aircraft A319/M-SDE3FGHIRWY/LB1

Departure

Time 2026-04-25 00:09
Airport Monterey Regional Airport (KMRY)

Arrival

Time 2026-04-25 01:14
Airport San Diego International Airport (KSAN)
Time Latitude Longitude Altitude Speed Heading
2026-04-24 23:53 36.58777 -121.85027 214 ft 0 kts 293°
2026-04-25 00:04 36.58789 -121.85040 213 ft 3 kts 326°
2026-04-25 00:05 36.58809 -121.85057 213 ft 4 kts 325°
2026-04-25 00:05 36.58816 -121.85053 210 ft 0 kts 36°
2026-04-25 00:05 36.58815 -121.85017 210 ft 9 kts 111°
2026-04-25 00:06 36.58776 -121.84912 210 ft 17 kts 111°
2026-04-25 00:06 36.58726 -121.84756 210 ft 20 kts 113°
2026-04-25 00:06 36.58658 -121.84593 210 ft 22 kts 124°
2026-04-25 00:06 36.58596 -121.84413 217 ft 23 kts 112°
2026-04-25 00:07 36.58530 -121.84220 209 ft 25 kts 113°
2026-04-25 00:07 36.58462 -121.84020 210 ft 26 kts 112°
2026-04-25 00:07 36.58391 -121.83810 215 ft 27 kts 113°
2026-04-25 00:07 36.58318 -121.83598 210 ft 25 kts 113°
2026-04-25 00:08 36.58285 -121.83458 210 ft 13 kts 92°
2026-04-25 00:08 36.58318 -121.83357 211 ft 14 kts 28°
2026-04-25 00:08 36.58356 -121.83416 209 ft 10 kts 295°
2026-04-25 00:08 36.58358 -121.83420 209 ft 1 kts 294°
2026-04-25 00:09 36.58485 -121.83799 211 ft 99 kts 292°
2026-04-25 00:09 36.58860 -121.84885 412 ft 162 kts 294°
2026-04-25 00:09 36.59353 -121.86267 1165 ft 183 kts 294°
2026-04-25 00:09 36.59829 -121.87702 2336 ft 178 kts 286°
2026-04-25 00:10 36.59830 -121.89227 3166 ft 184 kts 252°
2026-04-25 00:10 36.59025 -121.90560 3598 ft 209 kts 213°
2026-04-25 00:10 36.57556 -121.90984 4038 ft 234 kts 172°
2026-04-25 00:10 36.56003 -121.90119 4677 ft 256 kts 145°
2026-04-25 00:11 36.54596 -121.88713 5716 ft 262 kts 138°
2026-04-25 00:11 36.53265 -121.87184 6787 ft 266 kts 136°
2026-04-25 00:11 36.51910 -121.85587 7838 ft 271 kts 136°
2026-04-25 00:11 36.50522 -121.83971 8868 ft 275 kts 137°
2026-04-25 00:12 36.49098 -121.82347 9870 ft 280 kts 137°
2026-04-25 00:12 36.47617 -121.80688 10566 ft 298 kts 138°
2026-04-25 00:12 36.46025 -121.78926 11235 ft 312 kts 138°
2026-04-25 00:12 36.44383 -121.77122 12125 ft 318 kts 139°
2026-04-25 00:13 36.42708 -121.75293 13026 ft 323 kts 139°
2026-04-25 00:13 36.41008 -121.73444 13916 ft 327 kts 139°
2026-04-25 00:13 36.39306 -121.71596 14730 ft 332 kts 139°
2026-04-25 00:13 36.37556 -121.69696 15552 ft 336 kts 139°
2026-04-25 00:14 36.35787 -121.67773 16346 ft 341 kts 139°
2026-04-25 00:14 36.33992 -121.65825 17121 ft 345 kts 139°
2026-04-25 00:14 36.32173 -121.63853 17842 ft 350 kts 139°
2026-04-25 00:14 36.30329 -121.61857 18541 ft 354 kts 139°
2026-04-25 00:15 36.28462 -121.59833 19259 ft 358 kts 139°
2026-04-25 00:15 36.26578 -121.57794 19996 ft 361 kts 139°
2026-04-25 00:15 36.24703 -121.55763 20694 ft 364 kts 139°
2026-04-25 00:15 36.22788 -121.53687 21379 ft 368 kts 139°
2026-04-25 00:16 36.20857 -121.51593 22068 ft 371 kts 139°
2026-04-25 00:16 36.18902 -121.49480 22710 ft 375 kts 139°
2026-04-25 00:16 36.16924 -121.47343 23291 ft 380 kts 139°
2026-04-25 00:16 36.14921 -121.45185 23872 ft 384 kts 139°
2026-04-25 00:17 36.12894 -121.43003 24459 ft 388 kts 139°
2026-04-25 00:17 36.10850 -121.40804 25052 ft 391 kts 139°
2026-04-25 00:17 36.08791 -121.38589 25656 ft 393 kts 139°
2026-04-25 00:17 36.06597 -121.36557 26217 ft 396 kts 148°
2026-04-25 00:18 36.04134 -121.35019 26723 ft 399 kts 157°
2026-04-25 00:18 36.01605 -121.33679 27204 ft 403 kts 157°
2026-04-25 00:18 35.99021 -121.32304 27714 ft 405 kts 156°
2026-04-25 00:18 35.96426 -121.30918 28223 ft 408 kts 156°
2026-04-25 00:19 35.93817 -121.29519 28709 ft 410 kts 156°
2026-04-25 00:19 35.91186 -121.28112 29172 ft 413 kts 156°
2026-04-25 00:19 35.88537 -121.26702 29619 ft 416 kts 156°
2026-04-25 00:19 35.85869 -121.25284 30058 ft 419 kts 156°
2026-04-25 00:20 35.83180 -121.23853 30468 ft 423 kts 156°
2026-04-25 00:20 35.80508 -121.22431 30853 ft 426 kts 156°
2026-04-25 00:20 35.77780 -121.20980 31269 ft 428 kts 156°
2026-04-25 00:20 35.75039 -121.19524 31677 ft 430 kts 156°
2026-04-25 00:21 35.72287 -121.18062 32093 ft 432 kts 156°
2026-04-25 00:21 35.69518 -121.16596 32476 ft 434 kts 156°
2026-04-25 00:21 35.66737 -121.15126 32875 ft 435 kts 156°
2026-04-25 00:21 35.63963 -121.13658 33391 ft 433 kts 156°
2026-04-25 00:22 35.61200 -121.12196 33919 ft 431 kts 156°
2026-04-25 00:22 35.58448 -121.10742 34424 ft 430 kts 156°
2026-04-25 00:22 35.55705 -121.09291 34912 ft 429 kts 156°
2026-04-25 00:22 35.53005 -121.07868 35367 ft 428 kts 156°
2026-04-25 00:23 35.50275 -121.06433 35812 ft 427 kts 157°
2026-04-25 00:23 35.47551 -121.05001 36235 ft 426 kts 156°
2026-04-25 00:23 35.44882 -121.03430 36619 ft 425 kts 149°
2026-04-25 00:23 35.42447 -121.01382 36967 ft 425 kts 140°
2026-04-25 00:24 35.40314 -120.98883 37302 ft 425 kts 131°
2026-04-25 00:24 35.38529 -120.96001 37624 ft 425 kts 123°
2026-04-25 00:24 35.36881 -120.92993 37933 ft 425 kts 124°
2026-04-25 00:24 35.35222 -120.89995 38243 ft 425 kts 124°
2026-04-25 00:25 35.33580 -120.87047 38535 ft 425 kts 124°
2026-04-25 00:25 35.31911 -120.84060 38817 ft 425 kts 124°
2026-04-25 00:25 35.30241 -120.81070 38976 ft 426 kts 124°
2026-04-25 00:25 35.28577 -120.78090 39012 ft 423 kts 124°
2026-04-25 00:26 35.25263 -120.72153 39011 ft 422 kts 124°
2026-04-25 00:26 35.21953 -120.66219 39014 ft 421 kts 124°
2026-04-25 00:27 35.18666 -120.60348 39003 ft 421 kts 124°
2026-04-25 00:27 35.15355 -120.54441 39012 ft 421 kts 124°
2026-04-25 00:28 35.12048 -120.48531 39010 ft 421 kts 124°
2026-04-25 00:28 35.08732 -120.42626 39006 ft 422 kts 124°
2026-04-25 00:29 35.05424 -120.36763 39006 ft 422 kts 124°
2026-04-25 00:29 35.02087 -120.30860 39003 ft 423 kts 124°
2026-04-25 00:30 34.98752 -120.24957 39002 ft 423 kts 124°
2026-04-25 00:30 34.95408 -120.19046 38999 ft 424 kts 124°
2026-04-25 00:31 34.92052 -120.13135 39010 ft 424 kts 124°
2026-04-25 00:31 34.88714 -120.07257 39014 ft 425 kts 124°
2026-04-25 00:32 34.85355 -120.01334 39017 ft 425 kts 124°
2026-04-25 00:32 34.81987 -119.95420 39008 ft 425 kts 124°
2026-04-25 00:33 34.78613 -119.89502 39011 ft 426 kts 124°
2026-04-25 00:33 34.75227 -119.83584 38996 ft 427 kts 124°
2026-04-25 00:34 34.71857 -119.77696 39000 ft 428 kts 125°
2026-04-25 00:34 34.68450 -119.71758 38987 ft 429 kts 125°
2026-04-25 00:35 34.65033 -119.65812 39008 ft 429 kts 125°
2026-04-25 00:35 34.61609 -119.59870 39009 ft 429 kts 125°
2026-04-25 00:36 34.58209 -119.53977 39020 ft 429 kts 125°
2026-04-25 00:36 34.54783 -119.48045 39009 ft 429 kts 125°
2026-04-25 00:37 34.51356 -119.42116 39013 ft 429 kts 125°
2026-04-25 00:37 34.47928 -119.36199 39028 ft 429 kts 125°
2026-04-25 00:38 34.44505 -119.30294 39035 ft 427 kts 125°
2026-04-25 00:38 34.41112 -119.24454 39037 ft 426 kts 125°
2026-04-25 00:39 34.37710 -119.18606 39031 ft 425 kts 125°
2026-04-25 00:39 34.34312 -119.12764 39031 ft 424 kts 125°
2026-04-25 00:40 34.30912 -119.06948 39030 ft 423 kts 125°
2026-04-25 00:40 34.27512 -119.01145 39028 ft 423 kts 125°
2026-04-25 00:41 34.24116 -118.95348 39026 ft 422 kts 125°
2026-04-25 00:41 34.20742 -118.89599 39026 ft 422 kts 125°
2026-04-25 00:42 34.17344 -118.83823 38781 ft 421 kts 125°
2026-04-25 00:42 34.15649 -118.80942 38521 ft 421 kts 125°
2026-04-25 00:42 34.13952 -118.78059 38269 ft 422 kts 125°
2026-04-25 00:43 34.12248 -118.75171 38020 ft 422 kts 125°
2026-04-25 00:43 34.10545 -118.72286 37770 ft 422 kts 125°
2026-04-25 00:43 34.08844 -118.69403 37522 ft 422 kts 125°
2026-04-25 00:43 34.07167 -118.66559 37276 ft 422 kts 125°
2026-04-25 00:44 34.05461 -118.63666 37033 ft 423 kts 125°
2026-04-25 00:44 34.03757 -118.60784 36784 ft 422 kts 125°
2026-04-25 00:44 34.02055 -118.57909 36530 ft 421 kts 126°
2026-04-25 00:44 34.00357 -118.55048 36283 ft 420 kts 126°
2026-04-25 00:45 33.98657 -118.52187 36033 ft 420 kts 126°
2026-04-25 00:45 33.96965 -118.49343 35633 ft 415 kts 126°
2026-04-25 00:45 33.95295 -118.46536 35121 ft 411 kts 126°
2026-04-25 00:45 33.93632 -118.43758 34622 ft 407 kts 128°
2026-04-25 00:46 33.91782 -118.41206 34125 ft 403 kts 133°
2026-04-25 00:46 33.89878 -118.38743 33631 ft 400 kts 133°
2026-04-25 00:46 33.86150 -118.33927 32672 ft 392 kts 133°
2026-04-25 00:47 33.84296 -118.31532 32194 ft 389 kts 133°
2026-04-25 00:47 33.82464 -118.29162 31727 ft 386 kts 133°
2026-04-25 00:47 33.80647 -118.26812 31268 ft 382 kts 133°
2026-04-25 00:47 33.78842 -118.24478 30814 ft 379 kts 133°
2026-04-25 00:48 33.77053 -118.22165 30378 ft 376 kts 133°
2026-04-25 00:48 33.75287 -118.19862 29942 ft 373 kts 132°
2026-04-25 00:48 33.73540 -118.17563 29523 ft 372 kts 132°
2026-04-25 00:48 33.71806 -118.15273 29104 ft 370 kts 132°
2026-04-25 00:49 33.70080 -118.12994 28697 ft 368 kts 132°
2026-04-25 00:49 33.68365 -118.10732 28297 ft 365 kts 132°
2026-04-25 00:49 33.66683 -118.08520 27904 ft 362 kts 132°
2026-04-25 00:49 33.64987 -118.06297 27492 ft 360 kts 132°
2026-04-25 00:50 33.63303 -118.04093 27084 ft 357 kts 132°
2026-04-25 00:50 33.61633 -118.01909 26665 ft 354 kts 132°
2026-04-25 00:50 33.59977 -117.99741 26259 ft 351 kts 132°
2026-04-25 00:50 33.58330 -117.97590 25844 ft 348 kts 133°
2026-04-25 00:51 33.56699 -117.95461 25411 ft 346 kts 133°
2026-04-25 00:51 33.55076 -117.93347 24984 ft 343 kts 133°
2026-04-25 00:51 33.53423 -117.91303 24543 ft 341 kts 135°
2026-04-25 00:51 33.51731 -117.89323 24100 ft 339 kts 136°
2026-04-25 00:52 33.50052 -117.87410 23666 ft 337 kts 136°
2026-04-25 00:52 33.48357 -117.85490 23224 ft 335 kts 136°
2026-04-25 00:52 33.46671 -117.83575 22794 ft 333 kts 136°
2026-04-25 00:52 33.45003 -117.81666 22379 ft 331 kts 136°
2026-04-25 00:53 33.43342 -117.79773 21965 ft 329 kts 137°
2026-04-25 00:53 33.41656 -117.77930 21558 ft 327 kts 138°
2026-04-25 00:53 33.39961 -117.76124 21147 ft 326 kts 139°
2026-04-25 00:53 33.38267 -117.74337 20740 ft 324 kts 139°
2026-04-25 00:54 33.36581 -117.72559 20337 ft 322 kts 139°
2026-04-25 00:54 33.34905 -117.70785 19936 ft 321 kts 138°
2026-04-25 00:54 33.33263 -117.69037 19544 ft 320 kts 138°
2026-04-25 00:54 33.31610 -117.67271 19147 ft 318 kts 138°
2026-04-25 00:55 33.29962 -117.65510 18755 ft 317 kts 138°
2026-04-25 00:55 33.28322 -117.63761 18365 ft 315 kts 138°
2026-04-25 00:55 33.26685 -117.62019 17975 ft 314 kts 138°
2026-04-25 00:55 33.25057 -117.60289 17599 ft 313 kts 138°
2026-04-25 00:56 33.23432 -117.58570 17216 ft 311 kts 139°
2026-04-25 00:56 33.21925 -117.56720 16842 ft 311 kts 127°
2026-04-25 00:56 33.21068 -117.55343 16524 ft 313 kts 126°
2026-04-25 00:56 33.19340 -117.52517 15853 ft 317 kts 126°
2026-04-25 00:57 33.18057 -117.50412 15357 ft 319 kts 126°
2026-04-25 00:57 33.16748 -117.48262 14850 ft 321 kts 126°
2026-04-25 00:57 33.15437 -117.46108 14351 ft 322 kts 126°
2026-04-25 00:57 33.14121 -117.43944 13852 ft 322 kts 126°
2026-04-25 00:58 33.12804 -117.41778 13348 ft 323 kts 126°
2026-04-25 00:58 33.11487 -117.39611 12848 ft 322 kts 126°
2026-04-25 00:58 33.10173 -117.37450 12346 ft 321 kts 126°
2026-04-25 00:58 33.08865 -117.35297 11848 ft 320 kts 126°
2026-04-25 00:59 33.07560 -117.33149 11342 ft 319 kts 126°
2026-04-25 00:59 33.06264 -117.31016 10848 ft 317 kts 126°
2026-04-25 00:59 33.04990 -117.28920 10348 ft 315 kts 126°
2026-04-25 00:59 33.03708 -117.26808 9846 ft 314 kts 126°
2026-04-25 01:00 33.02434 -117.24710 9345 ft 312 kts 126°
2026-04-25 01:00 33.01169 -117.22627 8832 ft 309 kts 126°
2026-04-25 01:00 32.99911 -117.20555 8343 ft 307 kts 126°
2026-04-25 01:00 32.99085 -117.19194 8009 ft 306 kts 126°
2026-04-25 01:01 32.97844 -117.17150 7504 ft 303 kts 126°
2026-04-25 01:01 32.96614 -117.15124 6997 ft 301 kts 126°
2026-04-25 01:01 32.95395 -117.13116 6508 ft 298 kts 126°
2026-04-25 01:01 32.94188 -117.11126 6095 ft 292 kts 126°
2026-04-25 01:02 32.92670 -117.08626 6020 ft 270 kts 126°
2026-04-25 01:02 32.91579 -117.06826 6027 ft 267 kts 126°
2026-04-25 01:02 32.90491 -117.05034 6028 ft 267 kts 126°
2026-04-25 01:02 32.89407 -117.03246 6028 ft 267 kts 126°
2026-04-25 01:03 32.88688 -117.02061 6029 ft 267 kts 126°
2026-04-25 01:03 32.87604 -117.00273 6029 ft 266 kts 126°
2026-04-25 01:03 32.86521 -116.98487 6029 ft 266 kts 126°
2026-04-25 01:03 32.85437 -116.96700 6029 ft 266 kts 126°
2026-04-25 01:04 32.84354 -116.94914 6028 ft 266 kts 126°
2026-04-25 01:04 32.82921 -116.92550 6029 ft 266 kts 126°
2026-04-25 01:04 32.82189 -116.91343 6029 ft 266 kts 126°
2026-04-25 01:04 32.81105 -116.89554 6028 ft 267 kts 126°
2026-04-25 01:05 32.80036 -116.87789 6028 ft 267 kts 126°
2026-04-25 01:05 32.78950 -116.85997 6029 ft 267 kts 126°
2026-04-25 01:05 32.77866 -116.84208 6029 ft 267 kts 126°
2026-04-25 01:05 32.76772 -116.82425 5782 ft 266 kts 129°
2026-04-25 01:06 32.75332 -116.81091 5479 ft 264 kts 157°
2026-04-25 01:06 32.73539 -116.80750 5185 ft 263 kts 185°
2026-04-25 01:06 32.71833 -116.81334 5025 ft 249 kts 209°
2026-04-25 01:06 32.70548 -116.82579 5022 ft 230 kts 231°
2026-04-25 01:07 32.69804 -116.84168 5021 ft 213 kts 252°
2026-04-25 01:07 32.69390 -116.85785 5027 ft 205 kts 253°
2026-04-25 01:07 32.68977 -116.87406 5032 ft 206 kts 253°
2026-04-25 01:07 32.68547 -116.89028 4964 ft 206 kts 251°
2026-04-25 01:08 32.68075 -116.90633 4843 ft 205 kts 251°
2026-04-25 01:08 32.67605 -116.92212 4728 ft 198 kts 252°
2026-04-25 01:08 32.67400 -116.93782 4570 ft 190 kts 270°
2026-04-25 01:08 32.67592 -116.95318 4332 ft 188 kts 286°
2026-04-25 01:09 32.67959 -116.96801 4075 ft 186 kts 287°
2026-04-25 01:09 32.68318 -116.98264 3810 ft 182 kts 287°
2026-04-25 01:09 32.68667 -116.99689 3560 ft 178 kts 286°
2026-04-25 01:09 32.68999 -117.01049 3315 ft 169 kts 286°
2026-04-25 01:10 32.69317 -117.02348 3088 ft 159 kts 286°
2026-04-25 01:10 32.69618 -117.03579 2862 ft 151 kts 286°
2026-04-25 01:10 32.69902 -117.04740 2662 ft 140 kts 286°
2026-04-25 01:10 32.70160 -117.05806 2461 ft 131 kts 286°
2026-04-25 01:11 32.70407 -117.06830 2278 ft 128 kts 286°
2026-04-25 01:11 32.70651 -117.07836 2099 ft 126 kts 286°
2026-04-25 01:11 32.70894 -117.08835 1907 ft 126 kts 286°
2026-04-25 01:11 32.71135 -117.09829 1714 ft 125 kts 286°
2026-04-25 01:12 32.71375 -117.10819 1519 ft 125 kts 286°
2026-04-25 01:12 32.71611 -117.11793 1327 ft 124 kts 286°
2026-04-25 01:12 32.71850 -117.12778 1132 ft 124 kts 286°
2026-04-25 01:12 32.72090 -117.13758 937 ft 124 kts 287°
2026-04-25 01:13 32.72335 -117.14735 728 ft 123 kts 287°
2026-04-25 01:13 32.72580 -117.15706 519 ft 123 kts 285°
2026-04-25 01:13 32.72801 -117.16684 304 ft 122 kts 285°
2026-04-25 01:13 32.73032 -117.17654 89 ft 121 kts 286°
2026-04-25 01:14 32.73258 -117.18569 27 ft 107 kts 287°
2026-04-25 01:14 32.73431 -117.19262 22 ft 64 kts 285°
2026-04-25 01:14 32.73513 -117.19625 25 ft 39 kts 285°
2026-04-25 01:14 32.73526 -117.19806 25 ft 12 kts 249°
2026-04-25 01:15 32.73497 -117.19879 24 ft 12 kts 244°
2026-04-25 01:15 32.73499 -117.19983 24 ft 14 kts 288°
2026-04-25 01:15 32.73530 -117.20106 23 ft 17 kts 285°
2026-04-25 01:15 32.73526 -117.20233 24 ft 17 kts 221°
2026-04-25 01:16 32.73436 -117.20263 23 ft 12 kts 195°
2026-04-25 01:16 32.73398 -117.20275 23 ft 5 kts 195°
2026-04-25 01:16 32.73393 -117.20277 24 ft 0 kts 195°
2026-04-25 01:16 32.73381 -117.20279 23 ft 3 kts 188°
2026-04-25 01:17 32.73349 -117.20275 23 ft 6 kts 170°
2026-04-25 01:17 32.73307 -117.20261 23 ft 0 kts 161°
2026-04-25 01:17 32.73307 -117.20260 23 ft 0 kts 150°
2026-04-25 01:17 32.73298 -117.20240 23 ft 5 kts 104°
2026-04-25 01:18 32.73294 -117.20192 23 ft 4 kts 95°
2026-04-25 01:18 32.73292 -117.20175 23 ft 3 kts 97°
2026-04-25 01:18 32.73291 -117.20167 23 ft 0 kts 97°